Hourly Data Report for October 28, 2016

All times are specified in Local Standard Time (LST). Add 1 hour to adjust for Daylight Saving Time where and when it is observed.

ST LEONARD CS
NEW BRUNSWICK

47°09'28.050" N
67°49'55.014" W
245.00 m
810I001
71019
WIY

Download Data

Hourly Data (October 2016)
Hourly Data Report for October 28, 2016
Temp Definition
°C
Dew Point Temp Definition
°C
Rel Hum Definition
%
Wind Dir Definition
10's deg

Wind Spd Definition
km/h
Visibility Definition
km
Stn Press Definition
kPa
Hmdx Definition


Wind Chill Definition


Weather Definition


TIME
00:00 -2.0 -3.7 88 10 13   100.13   -6 LegendNANA
01:00 -2.0 -3.8 88 10 15   100.03   -7 LegendNANA
02:00 -2.3 -4.1 88 11 12   100.03   -7 LegendNANA
03:00 -2.4 -4.1 88 9 13   99.98   -7 LegendNANA
04:00 -2.0 -4.2 85 9 14   99.88   -7 LegendNANA
05:00 -1.8 -4.2 83 10 11   99.85   -6 LegendNANA
06:00 -1.7 -4.1 83 9 15   99.85   -7 LegendNANA
07:00 -1.8 -4.0 85 10 13   99.87   -6 LegendNANA
08:00 -1.5 -3.6 86 10 14   99.86   -6 LegendNANA
09:00 -0.2 -3.0 81 10 16   99.83   -5 LegendNANA
10:00 1.9 -1.9 76 11 15   99.80     LegendNANA
11:00 3.1 -2.3 68 12 23   99.74     LegendNANA
12:00 3.6 -2.0 67 12 21   99.65     LegendNANA
13:00 3.6 -2.4 65 10 20   99.57     LegendNANA
14:00 3.7 -2.6 63 9 17   99.48     LegendNANA
15:00 3.7 -2.8 63 10 14   99.44     LegendNANA
16:00 3.5 -2.4 65 9 10   99.43     LegendNANA
17:00 2.4 -2.2 72 6 6   99.37     LegendNANA
18:00 1.2 -2.2 78 3 7   99.33     LegendNANA
19:00 -0.4 -2.0 89 6 6   99.30   -2 LegendNANA
20:00 -0.5 -2.0 89 3 7   99.29   -3 LegendNANA
21:00 -0.5 -2.0 90 3 4   99.30   -2 LegendNANA
22:00 0.1 -1.7 88 3 8   99.28     LegendNANA
23:00 -1.1 -2.1 93 3 7   99.18   -4 LegendNANA

Notes on Data Quality.

Legend

  • E = Estimated
  • M = Missing
  • NA = Not Available
  • ‡ = Partner data that is not subject to review by the National Climate Archives
Date modified: